RYR41D LPMA-GCFV

Flight info

Callsign RYR41D
Flight time 1h 18m
Altitude 29000
Route GOSGA1E GOSGA DCT ORTIS N728 BRICK DCT GDV GDV5S
Aircraft B738/M-SDE2E3FGHIRWXY/LB1

Departure

Time 2026-05-07 14:59
Airport Cristiano Ronaldo International Airport (LPMA)

Arrival

Time 2026-05-07 16:18
Airport Fuerteventura Airport (GCFV)
Time Latitude Longitude Altitude Speed Heading
2026-05-07 14:37 32.69443 -16.77557 190 ft 0 kts 138°
2026-05-07 14:50 32.69452 -16.77567 200 ft 2 kts 137°
2026-05-07 14:50 32.69462 -16.77578 207 ft 2 kts 137°
2026-05-07 14:50 32.69471 -16.77588 205 ft 1 kts 139°
2026-05-07 14:51 32.69485 -16.77598 197 ft 2 kts 163°
2026-05-07 14:51 32.69500 -16.77596 201 ft 2 kts 223°
2026-05-07 14:51 32.69504 -16.77592 190 ft 0 kts 225°
2026-05-07 14:54 32.69502 -16.77594 196 ft 2 kts 225°
2026-05-07 14:54 32.69471 -16.77632 198 ft 10 kts 227°
2026-05-07 14:54 32.69416 -16.77699 195 ft 15 kts 226°
2026-05-07 14:55 32.69334 -16.77800 195 ft 19 kts 226°
2026-05-07 14:55 32.69291 -16.77873 190 ft 0 kts 257°
2026-05-07 14:55 32.69286 -16.77909 202 ft 8 kts 266°
2026-05-07 14:56 32.69289 -16.78002 188 ft 11 kts 272°
2026-05-07 14:56 32.69232 -16.78092 187 ft 17 kts 226°
2026-05-07 14:56 32.69128 -16.78214 185 ft 24 kts 224°
2026-05-07 14:56 32.69028 -16.78330 182 ft 15 kts 224°
2026-05-07 14:57 32.68960 -16.78389 181 ft 13 kts 198°
2026-05-07 14:57 32.68885 -16.78454 180 ft 13 kts 273°
2026-05-07 14:57 32.68926 -16.78480 180 ft 5 kts 33°
2026-05-07 14:57 32.68945 -16.78438 180 ft 7 kts 63°
2026-05-07 14:58 32.68975 -16.78392 181 ft 0 kts 44°
2026-05-07 14:59 32.69029 -16.78329 182 ft 31 kts 44°
2026-05-07 14:59 32.69386 -16.77912 195 ft 112 kts 45°
2026-05-07 14:59 32.70102 -16.77071 264 ft 168 kts 46°
2026-05-07 14:59 32.70875 -16.76106 1287 ft 155 kts 47°
2026-05-07 15:00 32.71531 -16.75090 2075 ft 159 kts 67°
2026-05-07 15:00 32.71633 -16.73735 2511 ft 177 kts 111°
2026-05-07 15:00 32.70812 -16.72708 3007 ft 183 kts 169°
2026-05-07 15:00 32.69528 -16.72655 3720 ft 181 kts 187°
2026-05-07 15:01 32.68356 -16.72728 4870 ft 155 kts 178°
2026-05-07 15:01 32.67262 -16.72562 5416 ft 168 kts 172°
2026-05-07 15:01 32.66029 -16.72313 5726 ft 190 kts 174°
2026-05-07 15:01 32.64685 -16.72105 6329 ft 193 kts 178°
2026-05-07 15:02 32.63352 -16.71902 7021 ft 195 kts 178°
2026-05-07 15:02 32.61971 -16.71700 7494 ft 203 kts 179°
2026-05-07 15:02 32.60527 -16.71521 7818 ft 216 kts 180°
2026-05-07 15:02 32.58976 -16.71304 8063 ft 231 kts 179°
2026-05-07 15:03 32.57384 -16.71085 8668 ft 223 kts 179°
2026-05-07 15:03 32.55961 -16.70828 9655 ft 190 kts 177°
2026-05-07 15:03 32.54751 -16.70545 10440 ft 169 kts 184°
2026-05-07 15:03 32.53613 -16.70356 11056 ft 161 kts 182°
2026-05-07 15:04 32.52499 -16.70176 11434 ft 162 kts 184°
2026-05-07 15:04 32.51375 -16.70001 11759 ft 167 kts 184°
2026-05-07 15:04 32.50167 -16.69819 11967 ft 180 kts 184°
2026-05-07 15:04 32.48898 -16.69622 12335 ft 187 kts 183°
2026-05-07 15:05 32.47599 -16.69417 12755 ft 190 kts 183°
2026-05-07 15:05 32.46282 -16.69206 13182 ft 192 kts 184°
2026-05-07 15:05 32.44959 -16.68993 13602 ft 193 kts 184°
2026-05-07 15:05 32.43627 -16.68779 13992 ft 193 kts 184°
2026-05-07 15:06 32.42291 -16.68563 14352 ft 193 kts 184°
2026-05-07 15:06 32.40975 -16.68351 14702 ft 193 kts 184°
2026-05-07 15:06 32.39649 -16.68137 15042 ft 191 kts 185°
2026-05-07 15:06 32.38348 -16.67925 15347 ft 187 kts 185°
2026-05-07 15:07 32.37054 -16.67718 15577 ft 191 kts 185°
2026-05-07 15:07 32.35657 -16.67509 15396 ft 217 kts 184°
2026-05-07 15:07 32.34071 -16.67272 15158 ft 243 kts 183°
2026-05-07 15:07 32.32322 -16.67000 14977 ft 264 kts 182°
2026-05-07 15:08 32.31090 -16.66803 14950 ft 274 kts 181°
2026-05-07 15:08 32.29183 -16.66491 15170 ft 276 kts 181°
2026-05-07 15:08 32.27314 -16.66175 15739 ft 264 kts 181°
2026-05-07 15:08 32.25551 -16.65875 16424 ft 248 kts 182°
2026-05-07 15:09 32.23830 -16.65596 16610 ft 256 kts 183°
2026-05-07 15:09 32.22005 -16.65315 16597 ft 274 kts 182°
2026-05-07 15:09 32.20079 -16.65012 16870 ft 281 kts 182°
2026-05-07 15:09 32.18120 -16.64697 17204 ft 287 kts 182°
2026-05-07 15:10 32.16118 -16.64374 17520 ft 292 kts 181°
2026-05-07 15:10 32.14103 -16.64049 17844 ft 296 kts 181°
2026-05-07 15:10 32.12042 -16.63720 18175 ft 304 kts 181°
2026-05-07 15:10 32.09895 -16.63382 18504 ft 318 kts 181°
2026-05-07 15:11 32.07652 -16.63031 18669 ft 333 kts 181°
2026-05-07 15:11 32.05294 -16.62737 18775 ft 349 kts 182°
2026-05-07 15:11 32.02825 -16.62476 18882 ft 365 kts 183°
2026-05-07 15:11 32.00240 -16.62213 18987 ft 380 kts 182°
2026-05-07 15:12 31.97552 -16.61935 19081 ft 394 kts 182°
2026-05-07 15:12 31.94776 -16.61641 19169 ft 407 kts 182°
2026-05-07 15:12 31.91920 -16.61331 19388 ft 415 kts 181°
2026-05-07 15:12 31.89042 -16.61010 19880 ft 415 kts 181°
2026-05-07 15:13 31.86172 -16.60686 20410 ft 414 kts 181°
2026-05-07 15:13 31.83297 -16.60365 20824 ft 417 kts 181°
2026-05-07 15:13 31.80394 -16.60044 21177 ft 420 kts 181°
2026-05-07 15:13 31.77474 -16.59723 21570 ft 422 kts 181°
2026-05-07 15:14 31.74584 -16.59406 21963 ft 424 kts 182°
2026-05-07 15:14 31.71644 -16.59083 22336 ft 426 kts 182°
2026-05-07 15:14 31.68686 -16.58760 22677 ft 428 kts 182°
2026-05-07 15:14 31.65707 -16.58434 23009 ft 431 kts 182°
2026-05-07 15:15 31.62712 -16.58106 23326 ft 433 kts 182°
2026-05-07 15:15 31.59695 -16.57776 23649 ft 435 kts 182°
2026-05-07 15:15 31.56675 -16.57446 23915 ft 437 kts 182°
2026-05-07 15:15 31.53638 -16.57114 24186 ft 439 kts 182°
2026-05-07 15:16 31.50589 -16.56780 24458 ft 441 kts 182°
2026-05-07 15:16 31.47533 -16.56446 24724 ft 442 kts 182°
2026-05-07 15:16 31.44454 -16.56111 24975 ft 444 kts 182°
2026-05-07 15:16 31.41370 -16.55775 25212 ft 447 kts 182°
2026-05-07 15:17 31.38273 -16.55443 25483 ft 448 kts 182°
2026-05-07 15:17 31.35161 -16.55119 25752 ft 449 kts 182°
2026-05-07 15:17 31.32080 -16.54803 25983 ft 450 kts 182°
2026-05-07 15:17 31.28950 -16.54483 26207 ft 452 kts 182°
2026-05-07 15:18 31.25809 -16.54161 26489 ft 452 kts 183°
2026-05-07 15:18 31.22676 -16.53838 26865 ft 451 kts 183°
2026-05-07 15:18 31.19562 -16.53515 27262 ft 448 kts 183°
2026-05-07 15:18 31.16451 -16.53193 27598 ft 448 kts 183°
2026-05-07 15:19 31.13687 -16.52909 27841 ft 449 kts 183°
2026-05-07 15:19 31.10577 -16.52590 28127 ft 449 kts 183°
2026-05-07 15:19 31.07456 -16.52269 28478 ft 448 kts 183°
2026-05-07 15:19 31.04351 -16.51949 28859 ft 447 kts 184°
2026-05-07 15:20 31.01246 -16.51629 29065 ft 448 kts 184°
2026-05-07 15:20 30.98118 -16.51311 28973 ft 452 kts 184°
2026-05-07 15:20 30.91878 -16.50669 29006 ft 448 kts 184°
2026-05-07 15:21 30.85720 -16.50036 29015 ft 447 kts 184°
2026-05-07 15:21 30.79522 -16.49402 29011 ft 446 kts 184°
2026-05-07 15:22 30.73337 -16.48771 29025 ft 447 kts 184°
2026-05-07 15:22 30.67133 -16.48139 29020 ft 448 kts 184°
2026-05-07 15:23 30.60911 -16.47505 29027 ft 450 kts 184°
2026-05-07 15:23 30.54660 -16.46869 29023 ft 452 kts 184°
2026-05-07 15:24 30.48378 -16.46230 29027 ft 454 kts 183°
2026-05-07 15:24 30.42054 -16.45587 29027 ft 456 kts 183°
2026-05-07 15:25 30.35723 -16.44944 29031 ft 457 kts 183°
2026-05-07 15:25 30.29377 -16.44305 29026 ft 459 kts 183°
2026-05-07 15:26 30.23005 -16.43667 29030 ft 460 kts 183°
2026-05-07 15:26 30.18698 -16.43236 29035 ft 460 kts 183°
2026-05-07 15:27 30.12361 -16.42602 29029 ft 460 kts 183°
2026-05-07 15:27 30.05968 -16.41962 29029 ft 460 kts 183°
2026-05-07 15:28 29.99582 -16.41324 29034 ft 460 kts 183°
2026-05-07 15:28 29.93196 -16.40687 29028 ft 460 kts 183°
2026-05-07 15:29 29.86813 -16.40051 29027 ft 459 kts 183°
2026-05-07 15:29 29.80483 -16.39421 29026 ft 459 kts 183°
2026-05-07 15:30 29.74119 -16.38789 29029 ft 459 kts 183°
2026-05-07 15:30 29.67737 -16.38156 29036 ft 459 kts 183°
2026-05-07 15:31 29.61372 -16.37423 28996 ft 466 kts 177°
2026-05-07 15:31 29.55117 -16.34980 28986 ft 487 kts 160°
2026-05-07 15:32 29.52183 -16.33140 29118 ft 486 kts 158°
2026-05-07 15:32 29.49231 -16.31223 29049 ft 489 kts 158°
2026-05-07 15:32 29.43297 -16.27356 29033 ft 490 kts 158°
2026-05-07 15:33 29.37337 -16.23540 29037 ft 491 kts 158°
2026-05-07 15:33 29.31342 -16.19753 29022 ft 491 kts 158°
2026-05-07 15:34 29.25356 -16.15988 29031 ft 492 kts 158°
2026-05-07 15:34 29.19344 -16.12211 29027 ft 492 kts 158°
2026-05-07 15:35 29.13363 -16.08455 29029 ft 492 kts 158°
2026-05-07 15:35 29.07351 -16.04684 29027 ft 492 kts 158°
2026-05-07 15:36 29.01343 -16.00921 29024 ft 492 kts 158°
2026-05-07 15:36 28.95339 -15.97165 29029 ft 491 kts 158°
2026-05-07 15:37 28.89341 -15.93418 29027 ft 491 kts 158°
2026-05-07 15:37 28.83347 -15.89678 29020 ft 490 kts 158°
2026-05-07 15:38 28.77365 -15.85952 29016 ft 490 kts 158°
2026-05-07 15:38 28.71414 -15.82249 29014 ft 490 kts 158°
2026-05-07 15:39 28.65435 -15.78534 29008 ft 489 kts 158°
2026-05-07 15:39 28.59458 -15.74824 29013 ft 489 kts 158°
2026-05-07 15:40 28.53479 -15.71119 29024 ft 489 kts 158°
2026-05-07 15:40 28.47493 -15.67414 29003 ft 489 kts 158°
2026-05-07 15:41 28.41508 -15.63714 29011 ft 489 kts 158°
2026-05-07 15:41 28.35543 -15.60031 28980 ft 489 kts 158°
2026-05-07 15:42 28.32527 -15.58173 28485 ft 495 kts 158°
2026-05-07 15:42 28.29500 -15.56308 27934 ft 493 kts 158°
2026-05-07 15:42 28.26503 -15.54458 27492 ft 489 kts 158°
2026-05-07 15:42 28.23542 -15.52634 26998 ft 490 kts 158°
2026-05-07 15:43 28.20547 -15.50792 26535 ft 491 kts 158°
2026-05-07 15:43 28.17535 -15.48940 26081 ft 491 kts 158°
2026-05-07 15:43 28.14536 -15.47090 25620 ft 491 kts 156°
2026-05-07 15:43 28.11775 -15.44735 24993 ft 506 kts 138°
2026-05-07 15:44 28.09738 -15.41480 24637 ft 506 kts 120°
2026-05-07 15:44 28.08505 -15.37756 24242 ft 508 kts 105°
2026-05-07 15:44 28.08161 -15.33780 23770 ft 507 kts 88°
2026-05-07 15:44 28.08440 -15.29844 23487 ft 496 kts 85°
2026-05-07 15:45 28.08768 -15.25979 22916 ft 491 kts 85°
2026-05-07 15:45 28.09090 -15.22218 22437 ft 479 kts 85°
2026-05-07 15:45 28.09391 -15.18509 21945 ft 468 kts 86°
2026-05-07 15:45 28.09669 -15.14869 21458 ft 457 kts 86°
2026-05-07 15:46 28.10165 -15.07881 20512 ft 434 kts 87°
2026-05-07 15:46 28.10397 -15.04502 20052 ft 425 kts 87°
2026-05-07 15:46 28.10621 -15.01194 19602 ft 416 kts 87°
2026-05-07 15:47 28.10841 -14.97959 19155 ft 408 kts 87°
2026-05-07 15:47 28.11055 -14.94788 18712 ft 400 kts 87°
2026-05-07 15:47 28.11266 -14.91672 18281 ft 394 kts 88°
2026-05-07 15:47 28.11473 -14.88599 17783 ft 387 kts 88°
2026-05-07 15:48 28.11677 -14.85575 17300 ft 381 kts 88°
2026-05-07 15:48 28.11877 -14.82596 16813 ft 376 kts 88°
2026-05-07 15:48 28.12073 -14.79666 16343 ft 371 kts 88°
2026-05-07 15:48 28.12263 -14.76815 15883 ft 366 kts 88°
2026-05-07 15:49 28.12453 -14.73959 15430 ft 361 kts 88°
2026-05-07 15:49 28.12640 -14.71143 14966 ft 357 kts 88°
2026-05-07 15:49 28.12824 -14.68364 14535 ft 352 kts 88°
2026-05-07 15:49 28.13005 -14.65606 14113 ft 348 kts 88°
2026-05-07 15:50 28.13182 -14.62925 14013 ft 335 kts 88°
2026-05-07 15:50 28.13354 -14.60307 14064 ft 336 kts 88°
2026-05-07 15:50 28.13526 -14.57640 14010 ft 342 kts 88°
2026-05-07 15:50 28.13701 -14.54958 14019 ft 341 kts 88°
2026-05-07 15:51 28.13875 -14.52280 14005 ft 341 kts 88°
2026-05-07 15:51 28.14049 -14.49599 13999 ft 341 kts 88°
2026-05-07 15:51 28.14221 -14.46924 14017 ft 340 kts 88°
2026-05-07 15:51 28.14393 -14.44249 14011 ft 340 kts 88°
2026-05-07 15:52 28.14564 -14.41571 14000 ft 341 kts 88°
2026-05-07 15:52 28.14733 -14.38919 14000 ft 340 kts 88°
2026-05-07 15:52 28.14903 -14.36247 14015 ft 339 kts 88°
2026-05-07 15:52 28.15072 -14.33572 14011 ft 339 kts 88°
2026-05-07 15:53 28.15241 -14.30901 13995 ft 340 kts 88°
2026-05-07 15:53 28.15409 -14.28229 14011 ft 340 kts 88°
2026-05-07 15:53 28.15576 -14.25571 13987 ft 341 kts 88°
2026-05-07 15:53 28.15743 -14.22900 14012 ft 340 kts 88°
2026-05-07 15:54 28.15910 -14.20223 13987 ft 340 kts 89°
2026-05-07 15:54 28.16077 -14.17549 14000 ft 340 kts 89°
2026-05-07 15:54 28.16187 -14.15774 14010 ft 340 kts 89°
2026-05-07 15:54 28.16353 -14.13089 13832 ft 344 kts 89°
2026-05-07 15:55 28.16521 -14.10356 13133 ft 351 kts 88°
2026-05-07 15:55 28.16682 -14.07616 12640 ft 346 kts 88°
2026-05-07 15:55 28.16830 -14.04900 12081 ft 344 kts 88°
2026-05-07 15:55 28.16892 -14.02198 11496 ft 340 kts 98°
2026-05-07 15:56 28.16224 -13.99665 10876 ft 334 kts 123°
2026-05-07 15:56 28.14772 -13.97685 10401 ft 321 kts 146°
2026-05-07 15:56 28.12829 -13.96567 9873 ft 310 kts 170°
2026-05-07 15:56 28.10723 -13.96460 9308 ft 299 kts 194°
2026-05-07 15:57 28.08871 -13.97327 8759 ft 291 kts 219°
2026-05-07 15:57 28.07538 -13.99027 8201 ft 284 kts 245°
2026-05-07 15:57 28.07044 -14.01117 7665 ft 279 kts 270°
2026-05-07 15:57 28.07440 -14.03242 7141 ft 277 kts 296°
2026-05-07 15:58 28.08645 -14.04918 6621 ft 278 kts 322°
2026-05-07 15:58 28.10410 -14.05793 6081 ft 280 kts 348°
2026-05-07 15:58 28.12351 -14.05668 5534 ft 285 kts 14°
2026-05-07 15:58 28.14076 -14.04554 4982 ft 290 kts 40°
2026-05-07 15:59 28.15270 -14.02709 4508 ft 291 kts 57°
2026-05-07 15:59 28.16222 -14.00685 3962 ft 290 kts 59°
2026-05-07 15:59 28.17150 -13.98655 3412 ft 289 kts 59°
2026-05-07 15:59 28.18064 -13.96650 3002 ft 282 kts 60°
2026-05-07 16:00 28.18938 -13.94720 2793 ft 270 kts 60°
2026-05-07 16:00 28.19765 -13.92876 2702 ft 253 kts 60°
2026-05-07 16:00 28.20528 -13.91157 2682 ft 236 kts 60°
2026-05-07 16:00 28.21244 -13.89527 2700 ft 230 kts 59°
2026-05-07 16:01 28.21954 -13.87911 2670 ft 226 kts 60°
2026-05-07 16:01 28.22650 -13.86331 2688 ft 222 kts 60°
2026-05-07 16:01 28.23328 -13.84769 2683 ft 225 kts 60°
2026-05-07 16:01 28.24043 -13.83140 2695 ft 229 kts 60°
2026-05-07 16:02 28.24447 -13.81400 2669 ft 239 kts 91°
2026-05-07 16:02 28.23859 -13.79645 2698 ft 244 kts 130°
2026-05-07 16:02 28.22436 -13.78628 2706 ft 245 kts 166°
2026-05-07 16:02 28.20754 -13.78558 2659 ft 244 kts 201°
2026-05-07 16:03 28.19425 -13.79603 2698 ft 232 kts 239°
2026-05-07 16:03 28.18993 -13.81264 2697 ft 221 kts 279°
2026-05-07 16:03 28.19550 -13.82828 2723 ft 214 kts 306°
2026-05-07 16:03 28.20413 -13.84223 2690 ft 218 kts 311°
2026-05-07 16:04 28.21450 -13.85511 2699 ft 219 kts 315°
2026-05-07 16:04 28.22514 -13.86744 2401 ft 224 kts 318°
2026-05-07 16:04 28.23772 -13.87723 2278 ft 212 kts 346°
2026-05-07 16:04 28.25247 -13.87614 2404 ft 224 kts 13°
2026-05-07 16:05 28.26728 -13.87082 2338 ft 220 kts 15°
2026-05-07 16:05 28.28171 -13.86693 2560 ft 211 kts
2026-05-07 16:05 28.29637 -13.86762 2770 ft 205 kts 353°
2026-05-07 16:05 28.31001 -13.86945 2791 ft 191 kts 354°
2026-05-07 16:06 28.32040 -13.87000 2578 ft 187 kts 357°
2026-05-07 16:06 28.33193 -13.86952 2142 ft 191 kts
2026-05-07 16:07 28.34453 -13.86777 2050 ft 172 kts
2026-05-07 16:07 28.35610 -13.86654 1917 ft 164 kts
2026-05-07 16:07 28.36704 -13.86642 1876 ft 160 kts 356°
2026-05-07 16:07 28.37845 -13.86679 1717 ft 167 kts 357°
2026-05-07 16:08 28.39007 -13.86641 1451 ft 166 kts
2026-05-07 16:08 28.40152 -13.86541 1125 ft 165 kts 359°
2026-05-07 16:08 28.41291 -13.86533 836 ft 162 kts
2026-05-07 16:08 28.42414 -13.86502 550 ft 162 kts
2026-05-07 16:09 28.43543 -13.86442 247 ft 164 kts
2026-05-07 16:09 28.44661 -13.86399 84 ft 156 kts
2026-05-07 16:09 28.45714 -13.86360 391 ft 137 kts
2026-05-07 16:09 28.46569 -13.86328 1473 ft 112 kts 360°
2026-05-07 16:10 28.47359 -13.86326 2183 ft 119 kts 356°
2026-05-07 16:10 28.48277 -13.86515 2503 ft 150 kts 330°
2026-05-07 16:10 28.48930 -13.87510 3005 ft 171 kts 287°
2026-05-07 16:10 28.48824 -13.88919 3315 ft 195 kts 248°
2026-05-07 16:11 28.47804 -13.89960 3794 ft 204 kts 201°
2026-05-07 16:11 28.46362 -13.90022 4146 ft 218 kts 175°
2026-05-07 16:11 28.44799 -13.89950 4329 ft 229 kts 179°
2026-05-07 16:11 28.43198 -13.89778 4663 ft 232 kts 172°
2026-05-07 16:12 28.41573 -13.89577 4857 ft 241 kts 176°
2026-05-07 16:12 28.39941 -13.89552 4693 ft 229 kts 182°
2026-05-07 16:12 28.38353 -13.89545 4307 ft 228 kts 181°
2026-05-07 16:12 28.36763 -13.89614 3841 ft 232 kts 183°
2026-05-07 16:13 28.35167 -13.89888 3436 ft 229 kts 206°
2026-05-07 16:13 28.33930 -13.90906 3206 ft 216 kts 232°
2026-05-07 16:13 28.33045 -13.92168 3118 ft 195 kts 227°
2026-05-07 16:13 28.31900 -13.92650 3218 ft 172 kts 174°
2026-05-07 16:14 28.30827 -13.91995 2571 ft 188 kts 122°
2026-05-07 16:14 28.30565 -13.90670 2324 ft 167 kts 80°
2026-05-07 16:14 28.30870 -13.89521 2216 ft 139 kts 42°
2026-05-07 16:14 28.31662 -13.88953 1687 ft 138 kts 17°
2026-05-07 16:15 28.32582 -13.88631 1247 ft 137 kts 12°
2026-05-07 16:15 28.33430 -13.88302 1146 ft 130 kts 21°
2026-05-07 16:15 28.34286 -13.87810 1696 ft 148 kts 27°
2026-05-07 16:15 28.35235 -13.87091 1985 ft 180 kts 22°
2026-05-07 16:16 28.36430 -13.86662 2006 ft 173 kts
2026-05-07 16:16 28.37566 -13.86678 1737 ft 159 kts 359°
2026-05-07 16:16 28.38658 -13.86656 1446 ft 155 kts
2026-05-07 16:16 28.39698 -13.86615 1175 ft 144 kts
2026-05-07 16:17 28.40681 -13.86579 867 ft 139 kts
2026-05-07 16:17 28.41663 -13.86534 657 ft 142 kts
2026-05-07 16:17 28.42669 -13.86484 411 ft 146 kts
2026-05-07 16:17 28.43668 -13.86448 161 ft 140 kts
2026-05-07 16:18 28.44573 -13.86403 57 ft 118 kts
2026-05-07 16:18 28.45179 -13.86383 73 ft 59 kts
2026-05-07 16:18 28.45469 -13.86370 81 ft 27 kts
2026-05-07 16:18 28.45630 -13.86367 86 ft 15 kts 355°
2026-05-07 16:19 28.45659 -13.86390 87 ft 2 kts 273°
2026-05-07 16:19 28.45660 -13.86413 86 ft 4 kts 272°
2026-05-07 16:19 28.45661 -13.86461 89 ft 8 kts 272°
2026-05-07 16:19 28.45663 -13.86496 91 ft 0 kts 272°
2026-05-07 16:20 28.45663 -13.86504 92 ft 6 kts 272°
2026-05-07 16:20 28.45645 -13.86553 97 ft 9 kts 214°
2026-05-07 16:20 28.45565 -13.86560 95 ft 16 kts 182°
2026-05-07 16:20 28.45424 -13.86565 96 ft 24 kts 182°
2026-05-07 16:21 28.45279 -13.86569 94 ft 4 kts 182°
2026-05-07 16:21 28.45251 -13.86571 96 ft 9 kts 183°
2026-05-07 16:21 28.45217 -13.86577 96 ft 0 kts 211°
2026-05-07 16:21 28.45216 -13.86582 97 ft 0 kts 247°
2026-05-07 16:22 28.45213 -13.86623 98 ft 19 kts 271°
2026-05-07 16:22 28.45222 -13.86752 98 ft 15 kts 272°
2026-05-07 16:22 28.45223 -13.86808 98 ft 0 kts 271°
2026-05-07 16:22 28.45223 -13.86811 98 ft 1 kts 271°
2026-05-07 16:23 28.45223 -13.86822 99 ft 1 kts 271°
2026-05-07 16:23 28.45223 -13.86827 101 ft 1 kts 272°
2026-05-07 16:23 28.45223 -13.86835 101 ft 0 kts 272°
2026-05-07 16:23 28.45223 -13.86836 101 ft 0 kts 272°